Find Starlink 31089

NORAD ID: 58610 Int'l Des: 2023-200 Owner: SPXS Country: US Constellation: starlink operational
LEOCIRCULAR

現在のビュー

3D地球を読み込み中...

About Starlink 31089

Starlink 31089 (NORAD 58610) is a starlink constellation satellite (v2 mini) launched Dec 19, 2023 by SPXS of US. It operates in LEO, CIRCULAR orbit with a mass of 730.00 kg.

次回通過

Passes for default location (London). Set your location on the main map for personalized predictions.

高度履歴

Loading altitude history...

軌道要素

1 58610U 23200X 26235.59708717 .00001859 00000-0 77106-4 0 9997
2 58610 43.0055 306.4937 0001790 269.5074 90.5572 15.27571002149137
Epoch: Aug 23, 2026 • Age: 11 hours

現在のステータス

高度 483.3 km
遠地点 / 近地点 N/A
速度 7.63 km/s
衛星直下点 -4.40°S, 52.43°W
打ち上げ日 Dec 19, 2023
運用期間 2.6 years
タイプ internet

技術仕様

分類 Payload
質量 730.00 kg
乾燥質量 700.00 kg
総質量 730.00 kg
長さ 0.30 m
直径 4.10 m
スパン 29.00 m
形状 Box + pan
製造者 SPXS
バスタイプ Starlink V2M
フェーズステータス In Orbit
所有者/国 SPXS/US

Most Searched